STARLINK-38098, 100164

Orbit data source: Space-Track

STARLINK-38098, 100164 is a payload satellite owned by SpaceX/Seattle (US) in SSO that was launched on Sat, 25 Jul 2026 UTC launched from the Air Force Western Test Range (AFWTR). Payload-class satellites include a variety of spacecraft equipped with specific instruments for various scientific and technological missions. These include communications satellites like Starlink; space stations such as the ISS; scientific satellites like the Hubble; Earth observation satellites from companies like Planet Labs, Umbra, and HawkEye 360; GPS; miniature CubeSats for education and research; and military/defense satellites.

Loading next visibility...
Identifier
100164, 2026-171S
Orbit
SSO
Country
Flag of USUS
Related business
Manufacturer
SpaceX/Seattle
Mission
Operational spacecraft
Bus & Motor
STARLINK V2MO, Unknown motor
Mass
575 kg wet, ~530 kg dry
Launch date (UTC)
2026-07-25 (3 weeks ago)
Launch vehicle
Unknown
Launch site
Air Force Western Test Range (AFWTR)
Object type
Payload
Rocket body
Debris
Shape & HBR
BOX + PAN, 17.7 m
Radar Cross Section
RCS unknown

Expand to show TLE details & history
Last TLE update: 9 hours ago

TLE from 9 hours ago
0 STARLINK-38098
1 A0164U 26171S   26227.56886595  .00164543  00000-0  84118-3 0  9997
2 A0164  97.2826 259.5246 0001689  66.1745 293.9700 15.80880287  3328
Epoch: 2026-08-15T13:39Z
TLE epoch observation values (Epoch: 2026-08-15T13:39:10.018Z)
Latitude
-0.00002°
Longitude
90.75499°
Altitude
330.666 km
Speed
7.71 km/s
True Right ascension
17h 18m 05s
True Declination
0° 00' 00"
Sunlit
Object was in full shadow at epoch
Visualization orbit readout
Latitude
Unknown
Longitude
Unknown
Altitude
Unknown
Speed
Unknown
Apparent Right ascension
Unknown
Apparent Declination
Unknown
Sunlit
N/A
Visualization observer readout
Local Sidereal Time
12:50:53
Azimuth
Unknown
Elevation
Unknown
Doppler factor
Unknown
Orbital elements
Apogee altitude
325.962 km
Perigee altitude
323.698 km
Semi-major axis
6,702.967 km
Eccentricity
0.00017
Inclination
97.2826°
RAAN
259.5246°
Arg. of periapsis
66.1745°
True anomaly
293.95231°
Mean anomaly
293.97°
Eccentric anomaly
293.96116°
Mean motion
3.95496 °/min
Orbital period
91.02 mins
BSTAR
0.00084118
Loading maneuver chart data...
Computing Atmospheric mass density...
Loading historical data...
Loading historical data...
Loading historical data...
Loading historical data...
Loading historical data...
Loading historical data...
Loading historical data...

Documentation

Showing up to 5 results
|